Back to catalog

STARLINK-32401

AliveCommunicationsVLEO
NORAD 61865·PAYLOAD·🇺🇸 United States

Launched Nov 7, 2024 from Cape Canaveral Space Force Station

Loading…

Next Passes (next 24 hours)

TLE

FreshSource: CelesTrak SupGP

Epoch: Sep 15, 2026, 02:53 UTC

1 61865C 24202W   26258.12062500 -.00022275  00000+0 -80709-3 0  2589
2 61865  43.0008 248.5369 0001426 271.6701 120.5471 15.27577975    13

Track STARLINK-32401 in real time with AllMySat

Download on the App Store